Content
SEND FEEDBACK

Turkmenistan Flag

ASHGABAT, TURKMENISTAN


Home > Asia > Turkmenistan
Elevation: 775 feet     Latitude: 37 58N     Longitude: 058 20E

WEATHER
 
SELECT A DAY
Number of Records: 200,906;   Date Range: 3/15/97 - 3/22/16
 
SHARE

PRINT THIS DATA

[ ← Previous Day ]
WEATHER ALMANAC - JULY 19, 2013
[ Next Day → ]
[ °C ]   °F
Weather ElementAverageHighLow
Temperature96.8 °F105.8 °F (5:00 pm)84.2 °F (5:00 am)
Dewpoint59.1 °F66 °F (8:00 am)55.4 °F (4:30 pm)
Humidity27.6 %45 % (5:00 am)15 % (5:00 pm)
Barometer29.61 in29.68 in (6:00 am)29.52 in (5:00 pm)
Wind Speed6.3 mph13.4 mph (1:00 am)
Weather ElementAverage
Visibility6.2 mi
Wind DirectionSSW (191.1 °)

Weather ElementTotal
Precipitation---
Cooling Degree Days30 (Base 65)
Growing Degree Days45 (Base 50)
Averaged from 36 records on July 19, 2013
WEATHER CONDITIONS BREAKOUT
WIND DIRECTION BREAKOUT
WEATHER BY HOUR - JULY 19, 2013
[ °C ]   °F
Local TimeTemperatureDewpointHumidityBarometerVisibilityWind DirectionWind SpeedGust SpeedPrecipitationEventsConditions
1:00 AM93.2 °F57.2 °F30 %29.65 in6.2 miWest (270°)13.4 mphClear
2:00 AM92.0 °F64.0 °F29 %29.60 in6.0 miWest (280°)8.9 mph
2:00 AM91.4 °F59.0 °F34 %29.65 in6.2 miWest (270°)8.9 mphClear
3:00 AM89.6 °F59.0 °F36 %29.65 in6.2 miWest (280°)11.2 mphClear
4:00 AM87.8 °F60.8 °F40 %29.65 in6.2 miWest (280°)6.7 mphClear
5:00 AM84.2 °F60.8 °F45 %29.65 in6.2 miWNW (300°)6.7 mphClear
5:00 AM87.0 °F63.0 °F35 %29.62 in6.0 miWNW (290°)6.7 mph
6:00 AM84.2 °F60.8 °F45 %29.68 in6.2 miVariable2.2 mphClear
7:00 AM86.0 °F62.6 °F45 %29.68 in6.2 miSouth (190°)2.2 mphClear
8:00 AM89.6 °F60.8 °F38 %29.68 in6.2 miVariable2.2 mphClear
8:00 AM89.0 °F66.0 °F37 %29.63 in6.0 miEast (80°)4.5 mph
9:00 AM91.4 °F60.8 °F36 %29.68 in6.2 miNorth (360°)4.5 mphClear
10:00 AM95.0 °F60.8 °F32 %29.65 in6.2 miVariable2.2 mphClear
11:00 AM95.0 °F61.0 °F23 %29.63 in6.0 miNorth (350°)4.5 mph
11:00 AM96.8 °F59.0 °F28 %29.65 in6.2 miVariable2.2 mphClear
12:00 PM98.6 °F59.0 °F27 %29.65 in6.2 miNNW (330°)6.7 mphClear
1:00 PM100.4 °F59.0 °F25 %29.62 in6.2 miENE (60°)6.7 mphClear
2:00 PM102.2 °F57.2 °F22 %29.62 in6.2 miNNE (30°)6.7 mphClear
2:00 PM99.0 °F64.0 °F22 %29.58 in6.0 miNNE (30°)6.7 mph
3:00 PM102.2 °F57.2 °F22 %29.59 in6.2 miVariable2.2 mphClear
3:30 PM104.0 °F57.2 °F21 %29.59 in6.2 miENE (70°)4.5 mphClear
4:00 PM104.0 °F57.2 °F21 %29.56 in6.2 miNE (40°)4.5 mphClear
4:30 PM104.0 °F55.4 °F20 %29.56 in6.2 miNNE (30°)4.5 mphClear
5:00 PM105.0 °F61.0 °F15 %29.52 in6.0 miWest (260°)4.5 mph
5:00 PM105.8 °F55.4 °F19 %29.56 in6.2 miWNW (290°)6.7 mphClear
5:30 PM105.8 °F55.4 °F19 %29.56 in6.2 miWest (260°)6.7 mphClear
6:00 PM105.8 °F55.4 °F19 %29.56 in6.2 miWest (270°)4.5 mphClear
6:30 PM105.8 °F57.2 °F20 %29.56 in6.2 miCalmClear
7:00 PM104.0 °F57.2 °F21 %29.56 in6.2 miWest (280°)6.7 mphClear
7:30 PM104.0 °F55.4 °F20 %29.56 in6.2 miWNW (300°)8.9 mphClear
8:00 PM102.0 °F60.0 °F17 %29.52 in6.0 miWNW (290°)8.9 mph
8:00 PM102.2 °F55.4 °F21 %29.56 in6.2 miWNW (290°)8.9 mphClear
9:00 PM96.8 °F57.2 °F27 %29.56 in6.2 miWNW (290°)11.2 mphClear
10:00 PM95.0 °F57.2 °F28 %29.59 in6.2 miWNW (290°)11.2 mphClear
11:00 PM93.0 °F64.0 °F28 %29.56 in6.0 miWest (260°)8.9 mph
11:00 PM93.2 °F55.4 °F28 %29.59 in6.2 miWest (260°)8.9 mphClear
Hourly data recorded from UTAA, located miles away from Ashgabat, Turkmenistan




STORIES FROM OUR PARTNERS